DMSP 5D-2 F11 DEB, 35532

Orbit data source: Space-Track

DMSP 5D-2 F11 DEB, 35532 is space debris in SSO originally from a launch on Thu, 28 Nov 1991 UTC launched from the Air Force Western Test Range (AFWTR). Debris objects in space refer to the collection of defunct objects orbiting the Earth. Examples of debris include non-operational satellites, rocket bodies, and fragments generated from explosions, collisions, or faulty payload assembly.

Loading next visibility...
Identifier
35532, 1991-082CP
Orbit
SSO
Country
Flag of USUS
Related business
Manufacturer
Unknown
Mission
Spacecraft
Bus & Motor
Unknown
Mass
Unknown
Launch date (UTC)
1991-11-28 (35 years ago)
Launch vehicle
Unknown
Launch site
Air Force Western Test Range (AFWTR)
Object type
Payload
Rocket body
Debris
Shape & HBR
Unknown shape, 0.1 m
Radar Cross Section
Small (<0.1 m²)

Expand to show TLE details & history
Last TLE update: 15 hours ago

TLE from 15 hours ago
0 DMSP 5D-2 F11 DEB
1 35532U 91082CP  26263.90462804  .00009828  00000-0  19450-2 0  9998
2 35532  98.7030  68.1283 0061153  92.5029 268.3173 14.61341523681081
Epoch: 2026-09-20T21:42Z
TLE epoch observation values (Epoch: 2026-09-20T21:42:39.862Z)
Latitude
-0.00003°
Longitude
102.6701°
Altitude
693.35 km
Speed
7.509 km/s
True Right ascension
04h 32m 30s
True Declination
0° 00' 00"
Sunlit
Object was in daylight at epoch
Visualization orbit readout
Latitude
Unknown
Longitude
Unknown
Altitude
Unknown
Speed
Unknown
Apparent Right ascension
Unknown
Apparent Declination
Unknown
Sunlit
N/A
Visualization observer readout
Local Sidereal Time
05:59:50
Azimuth
Unknown
Elevation
Unknown
Doppler factor
Unknown
Orbital elements
Apogee altitude
729.148 km
Perigee altitude
642.75 km
Semi-major axis
7,064.086 km
Eccentricity
0.00612
Inclination
98.703°
RAAN
68.1283°
Arg. of periapsis
92.5029°
True anomaly
267.61702°
Mean anomaly
268.3173°
Eccentric anomaly
267.96714°
Mean motion
3.6556 °/min
Orbital period
98.48 mins
BSTAR
0.001945

Documentation

Showing up to 5 results
|